Weather History for Karlovy Vary, Czech Republic

Change the Weather History Date:

Sunday, January 13, 2013

  Actual Average (EDQM) Record (EDQM)
Temperature  
Mean Temperature 16 °F -  
Max Temperature 23 °F 32 °F 49 °F (2015)
Min Temperature 8 °F 24 °F 10 °F (1997)
Degree Days  
Heating Degree Days 50    
Moisture  
Dew Point 15 °F    
Average Humidity 85    
Maximum Humidity 93    
Minimum Humidity 74    
Precipitation  
Precipitation 0.00 in - - ()
Sea Level Pressure  
Sea Level Pressure 29.95 in    
Wind  
Wind Speed 3 mph ()    
Max Wind Speed 9 mph    
Max Gust Speed -    
Visibility 6.1 miles    
Events Snow    
Averages and records for this station are not official NWS values.
T = Trace of Precipitation, MM = Missing Value Source: Averaged Metar Reports

Daily Weather History Graph

Daily Weather History Graph

Search for Another Location

Airport:

Trip Planner

Search our weather history database for the weather conditions in past years. The results will help you decide how hot, cold, wet, or windy it might be!

Date:

Astronomy

Jan. 13, 2013 Rise Set
Actual Time 8:03 AM CET 4:31 PM CET
Civil Twilight 7:25 AM CET 5:08 PM CET
Nautical Twilight 6:45 AM CET 5:49 PM CET
Astronomical Twilight 6:06 AM CET 6:28 PM CET
Moon 8:35 AM CET (1/13) 7:08 PM CET (1/13)
Length of Visible Light 9h 42m
Length of Day
8h 28m
Waxing Crescent, 4% of the Moon is Illuminated
Jan 13
Waxing Crescent
Jan 19
First Quarter
Jan 27
Full
Feb 3
Last Quarter
Feb 10
New

Hourly Weather History & Observations

Time (CET) Temp. Windchill Dew Point Humidity Pressure Visibility Wind Dir Wind Speed Gust Speed Precip Events Conditions
12:00 AM 8.6 °F - 6.8 °F 92% 29.98 in - Variable 2.3 mph - N/A   Clear
1:00 AM 10.4 °F - 8.6 °F 92% 29.98 in - Variable 2.3 mph - N/A   Clear
2:00 AM 10.4 °F - 6.8 °F 85% 29.98 in - Variable 2.3 mph - N/A   Clear
3:00 AM 8.6 °F - 6.8 °F 92% 29.98 in 6.2 mi Variable 1.2 mph - N/A   Partly Cloudy
4:00 AM 10.4 °F - 8.6 °F 92% 29.95 in 6.2 mi Variable 2.3 mph - N/A   Scattered Clouds
5:00 AM 12.2 °F - 8.6 °F 85% 29.95 in 6.2 mi Variable 2.3 mph - N/A   Partly Cloudy
6:00 AM 10.4 °F - 8.6 °F 92% 29.95 in - Variable 1.2 mph - N/A   Clear
6:30 AM 10.4 °F - 6.8 °F 85% 29.95 in 6.2 mi Variable 2.3 mph - N/A   Partly Cloudy
7:00 AM 10.4 °F - 6.8 °F 85% 29.95 in 6.2 mi Calm Calm - N/A   Mostly Cloudy
7:30 AM 12.2 °F - 10.4 °F 92% 29.98 in 6.2 mi Variable 1.2 mph - N/A   Mostly Cloudy
8:00 AM 15.8 °F - 12.2 °F 86% 29.98 in 6.2 mi East 1.2 mph - N/A   Mostly Cloudy
8:08 AM 15.8 °F - 12.2 °F 86% 29.98 in 6.2 mi Variable 1.2 mph - N/A Snow Light Snow
8:30 AM 15.8 °F - 14.0 °F 93% 29.98 in 6.2 mi ESE 2.3 mph - N/A Snow Light Snow
9:00 AM 17.6 °F - 14.0 °F 86% 29.98 in 6.2 mi Calm Calm - N/A Snow Light Snow
9:30 AM 17.6 °F - 15.8 °F 93% 29.98 in 3.7 mi Variable 2.3 mph - N/A Snow Light Snow
10:00 AM 19.4 °F - 15.8 °F 86% 29.98 in 6.2 mi Variable 1.2 mph - N/A Snow Light Snow
10:30 AM 19.4 °F - 15.8 °F 86% 29.98 in 6.2 mi Calm Calm - N/A   Scattered Clouds
11:00 AM 21.2 °F - 19.4 °F 93% 29.98 in 6.2 mi Variable 2.3 mph - N/A   Scattered Clouds
11:13 AM 21.2 °F 16.4 °F 19.4 °F 93% 29.98 in 6.2 mi East 3.5 mph - N/A Snow Light Snow Showers
11:30 AM 23.0 °F - 19.4 °F 86% 29.98 in 6.2 mi East 2.3 mph - N/A   Scattered Clouds
11:50 AM 21.2 °F 16.4 °F 19.4 °F 93% 29.95 in 6.2 mi ENE 3.5 mph - N/A Snow Light Snow Showers
12:00 PM 21.2 °F 16.4 °F 19.4 °F 93% 29.95 in 6.2 mi ENE 3.5 mph - N/A Snow Light Snow Showers
12:30 PM 21.2 °F 14.9 °F 17.6 °F 86% 29.95 in 6.2 mi NE 4.6 mph - N/A   Scattered Clouds
1:00 PM 23.0 °F 14.7 °F 19.4 °F 86% 29.92 in 6.2 mi NNE 6.9 mph - N/A   Scattered Clouds
1:30 PM 23.0 °F 18.4 °F 19.4 °F 86% 29.92 in 6.2 mi NE 3.5 mph - N/A   Mostly Cloudy
2:00 PM 23.0 °F 15.8 °F 17.6 °F 80% 29.92 in 6.2 mi ENE 5.8 mph - N/A   Mostly Cloudy
2:30 PM 23.0 °F 13.9 °F 15.8 °F 74% 29.95 in 6.2 mi East 8.1 mph - N/A   Mostly Cloudy
3:00 PM 23.0 °F 13.9 °F 17.6 °F 80% 29.92 in 6.2 mi East 8.1 mph - N/A   Mostly Cloudy
3:30 PM 23.0 °F 13.9 °F 15.8 °F 74% 29.92 in 6.2 mi ENE 8.1 mph - N/A   Mostly Cloudy
4:00 PM 23.0 °F 15.8 °F 15.8 °F 74% 29.92 in 6.2 mi ENE 5.8 mph - N/A   Mostly Cloudy
4:30 PM 23.0 °F 14.7 °F 17.6 °F 80% 29.95 in 6.2 mi ENE 6.9 mph - N/A   Overcast
5:00 PM 23.0 °F 15.8 °F 17.6 °F 80% 29.95 in 6.2 mi NE 5.8 mph - N/A   Overcast
5:30 PM 23.0 °F 13.9 °F 15.8 °F 74% 29.95 in 6.2 mi East 8.1 mph - N/A   Overcast
6:00 PM 23.0 °F 13.9 °F 15.8 °F 74% 29.95 in 6.2 mi ENE 8.1 mph - N/A   Overcast
6:30 PM 21.2 °F 12.6 °F 15.8 °F 80% 29.95 in 6.2 mi ENE 6.9 mph - N/A   Overcast
7:00 PM 21.2 °F 11.7 °F 15.8 °F 80% 29.95 in 6.2 mi East 8.1 mph - N/A   Overcast
7:30 PM 21.2 °F 11.7 °F 15.8 °F 80% 29.92 in 6.2 mi East 8.1 mph - N/A   Overcast
8:00 PM 21.2 °F 10.9 °F 15.8 °F 80% 29.92 in 6.2 mi East 9.2 mph - N/A   Overcast
9:00 PM 21.2 °F 13.6 °F 15.8 °F 80% 29.92 in 6.2 mi ENE 5.8 mph - N/A   Overcast
10:00 PM 21.2 °F 14.9 °F 17.6 °F 86% 29.92 in 6.2 mi NE 4.6 mph - N/A   Overcast
11:00 PM 21.2 °F 13.6 °F 17.6 °F 86% 29.92 in 6.2 mi ENE 5.8 mph - N/A   Mostly Cloudy